Check out our new BloomSky Weather System.

Active alerts

Galveston, TX
  Details for Galveston, TX Rip Current Statement


Thunder radar  blitzortung!


Rain radar more information rain snow radar


Visit our other weather sites:

Template documentation
and downloads

And another site



Weather Underground History page Text

Daily Summary for June 20, 2017 Units:  English    Metric   Both
« Previous Day
Next Day »
Daily Weekly Monthly Yearly Custom
  High: Low: Average:
Temperature: TemperatureF °F 76.8 °F 85.2 °F
Dew Point: DewpointF °F 74.1 °F 75.5 °F
Humidity: Humidity % 54 % 74 %
Wind Speed: WindSpeedMPH mph 0.0 mph 2.4 mph
Wind Gust: WindSpeedGustMPH mph - -
Wind:- - SW
Pressure: PressureIn in 29.83 in -
Precipitation: 0.00 in    
Historical Graphs
 
 
Tabular Data for June 20, 2017
Time Temperature Dew Point Pressure Wind Wind Speed Wind Gust Humidity Rainfall Rate (Hourly)
TemperatureF °F DewpointF °F PressureIn in Calm     Humidity % HourlyPrecipIn in
00:04 83.7 °F 76.1 °F 29.93 in Calm   1.0 mph 78 % 0.00 in
00:09 83.7 °F 76.1 °F 29.93 in Calm   1.0 mph 78 % 0.00 in
00:14 83.7 °F 75.7 °F 29.93 in NNW 1.0 mph 2.0 mph 77 % 0.00 in
00:19 83.5 °F 75.6 °F 29.93 in NNW 2.0 mph 4.0 mph 77 % 0.00 in
00:24 83.5 °F 75.6 °F 29.93 in North 2.0 mph 5.0 mph 77 % 0.00 in
00:26 83.5 °F 75.6 °F 29.93 in Calm   5.0 mph 77 % 0.00 in
00:31 83.5 °F 75.9 °F 29.93 in NNW 1.0 mph 5.0 mph 78 % 0.00 in
00:36 83.5 °F 75.9 °F 29.93 in North 2.0 mph 5.0 mph 78 % 0.00 in
00:41 83.5 °F 75.9 °F 29.92 in North 6.0 mph 6.0 mph 78 % 0.00 in
00:46 83.5 °F 75.9 °F 29.92 in NW 2.0 mph 7.0 mph 78 % 0.00 in
00:51 83.3 °F 75.7 °F 29.92 in NNW 1.0 mph 7.0 mph 78 % 0.00 in
00:56 83.1 °F 75.9 °F 29.92 in Calm   7.0 mph 79 % 0.00 in
01:01 82.9 °F 75.7 °F 29.92 in Calm   6.0 mph 79 % 0.00 in
01:06 82.8 °F 75.9 °F 29.92 in Calm   4.0 mph 80 % 0.00 in
01:11 82.6 °F 75.7 °F 29.93 in Calm   3.0 mph 80 % 0.00 in
01:16 82.6 °F 76.1 °F 29.93 in Calm   3.0 mph 81 % 0.00 in
01:22 82.4 °F 75.9 °F 29.93 in Calm   3.0 mph 81 % 0.00 in
01:26 82.2 °F 75.7 °F 29.93 in West 1.0 mph 3.0 mph 81 % 0.00 in
01:32 82.2 °F 76.1 °F 29.92 in Calm   4.0 mph 82 % 0.00 in
01:37 82.2 °F 76.1 °F 29.92 in ENE 2.0 mph 4.0 mph 82 % 0.00 in
01:42 82.0 °F 75.9 °F 29.92 in SE 1.0 mph 4.0 mph 82 % 0.00 in
01:47 82.2 °F 76.1 °F 29.92 in South 2.0 mph 3.0 mph 82 % 0.00 in
01:52 82.0 °F 75.9 °F 29.92 in Calm   3.0 mph 82 % 0.00 in
01:57 82.0 °F 75.9 °F 29.91 in SE 1.0 mph 3.0 mph 82 % 0.00 in
02:02 82.0 °F 75.9 °F 29.91 in Calm   2.0 mph 82 % 0.00 in
02:07 81.9 °F 76.1 °F 29.91 in North 1.0 mph 2.0 mph 83 % 0.00 in
02:12 81.7 °F 75.9 °F 29.91 in NE 2.0 mph 3.0 mph 83 % 0.00 in
02:17 81.7 °F 75.9 °F 29.91 in Calm   3.0 mph 83 % 0.00 in
02:22 81.3 °F 75.7 °F 29.91 in Calm   3.0 mph 83 % 0.00 in
02:27 81.1 °F 75.6 °F 29.91 in ENE 2.0 mph 4.0 mph 83 % 0.00 in
02:32 81.1 °F 75.6 °F 29.91 in Calm   4.0 mph 83 % 0.00 in
02:37 81.0 °F 75.4 °F 29.91 in North 2.0 mph 4.0 mph 83 % 0.00 in
02:42 81.0 °F 75.7 °F 29.91 in Calm   4.0 mph 84 % 0.00 in
02:47 80.8 °F 75.6 °F 29.90 in Calm   4.0 mph 84 % 0.00 in
02:52 80.8 °F 75.6 °F 29.90 in Calm   2.0 mph 84 % 0.00 in
02:57 80.4 °F 75.2 °F 29.90 in Calm   1.0 mph 84 % 0.00 in
03:02 80.2 °F 75.4 °F 29.90 in NNW 1.0 mph 1.0 mph 85 % 0.00 in
03:07 80.2 °F 75.4 °F 29.90 in Calm   1.0 mph 85 % 0.00 in
03:12 80.1 °F 75.2 °F 29.90 in NW 1.0 mph 2.0 mph 85 % 0.00 in
03:17 79.9 °F 75.4 °F 29.89 in Calm   2.0 mph 86 % 0.00 in
03:22 79.7 °F 75.2 °F 29.89 in NNW 1.0 mph 2.0 mph 86 % 0.00 in
03:27 79.5 °F 75.0 °F 29.89 in Calm   2.0 mph 86 % 0.00 in
03:32 79.3 °F 74.8 °F 29.89 in Calm   2.0 mph 86 % 0.00 in
03:37 79.2 °F 74.7 °F 29.89 in Calm   2.0 mph 86 % 0.00 in
03:42 79.2 °F 75.0 °F 29.89 in Calm   1.0 mph 87 % 0.00 in
03:47 79.0 °F 74.8 °F 29.89 in Calm   1.0 mph 87 % 0.00 in
03:52 78.8 °F 74.7 °F 29.89 in Calm   1.0 mph 87 % 0.00 in
03:57 78.6 °F 74.8 °F 29.89 in NNW 1.0 mph 1.0 mph 88 % 0.00 in
04:02 78.6 °F 74.8 °F 29.89 in Calm   1.0 mph 88 % 0.00 in
04:07 78.4 °F 74.7 °F 29.89 in Calm   1.0 mph 88 % 0.00 in
04:12 78.4 °F 74.7 °F 29.89 in Calm   1.0 mph 88 % 0.00 in
04:17 78.3 °F 74.7 °F 29.89 in Calm   1.0 mph 89 % 0.00 in
04:22 78.3 °F 74.7 °F 29.89 in Calm   1.0 mph 89 % 0.00 in
04:27 78.3 °F 74.7 °F 29.89 in Calm   1.0 mph 89 % 0.00 in
04:32 78.3 °F 74.7 °F 29.89 in NW 1.0 mph 1.0 mph 89 % 0.00 in
04:37 78.3 °F 74.7 °F 29.89 in Calm   2.0 mph 89 % 0.00 in
04:42 78.3 °F 74.7 °F 29.89 in North 1.0 mph 2.0 mph 89 % 0.00 in
04:43 78.1 °F 74.5 °F 29.89 in Calm   2.0 mph 89 % 0.00 in
04:48 78.1 °F 74.8 °F 29.89 in NW 1.0 mph 2.0 mph 90 % 0.00 in
04:53 78.1 °F 74.8 °F 29.89 in NW 1.0 mph 2.0 mph 90 % 0.00 in
04:58 77.9 °F 74.7 °F 29.89 in Calm   2.0 mph 90 % 0.00 in
05:03 77.9 °F 74.7 °F 29.89 in NNW 1.0 mph 3.0 mph 90 % 0.00 in
05:05 77.9 °F 74.7 °F 29.89 in North 1.0 mph 3.0 mph 90 % 0.00 in
05:10 77.7 °F 74.5 °F 29.88 in Calm   3.0 mph 90 % 0.00 in
05:15 77.7 °F 74.5 °F 29.88 in North 2.0 mph 3.0 mph 90 % 0.00 in
05:20 77.7 °F 74.8 °F 29.88 in Calm   3.0 mph 91 % 0.00 in
05:25 77.5 °F 74.7 °F 29.89 in NNW 1.0 mph 5.0 mph 91 % 0.00 in
05:30 77.5 °F 74.7 °F 29.89 in NNW 1.0 mph 5.0 mph 91 % 0.00 in
05:35 77.5 °F 74.7 °F 29.89 in NNW 1.0 mph 5.0 mph 91 % 0.00 in
05:40 77.4 °F 74.5 °F 29.89 in North 1.0 mph 3.0 mph 91 % 0.00 in
05:45 77.4 °F 74.5 °F 29.89 in Calm   3.0 mph 91 % 0.00 in
05:50 77.4 °F 74.5 °F 29.89 in Calm   3.0 mph 91 % 0.00 in
05:55 77.2 °F 74.3 °F 29.89 in Calm   4.0 mph 91 % 0.00 in
06:00 77.2 °F 74.7 °F 29.89 in NNW 1.0 mph 4.0 mph 92 % 0.00 in
06:05 77.2 °F 74.7 °F 29.89 in Calm   4.0 mph 92 % 0.00 in
06:11 77.0 °F 74.5 °F 29.90 in Calm   2.0 mph 92 % 0.00 in
06:16 76.8 °F 74.3 °F 29.90 in NW 1.0 mph 2.0 mph 92 % 0.00 in
06:21 76.8 °F 74.3 °F 29.90 in Calm   2.0 mph 92 % 0.00 in
06:26 76.8 °F 74.3 °F 29.90 in Calm   2.0 mph 92 % 0.00 in
06:31 76.8 °F 74.3 °F 29.90 in NW 1.0 mph 2.0 mph 92 % 0.00 in
06:36 76.8 °F 74.3 °F 29.90 in NW 1.0 mph 2.0 mph 92 % 0.00 in
06:41 76.8 °F 74.7 °F 29.90 in WNW 1.0 mph 2.0 mph 93 % 0.00 in
06:46 76.8 °F 74.3 °F 29.90 in NW 1.0 mph 2.0 mph 92 % 0.00 in
06:51 76.8 °F 74.7 °F 29.90 in Calm   2.0 mph 93 % 0.00 in
06:56 77.0 °F 74.8 °F 29.90 in Calm   3.0 mph 93 % 0.00 in
07:01 77.2 °F 75.0 °F 29.91 in NNW 1.0 mph 3.0 mph 93 % 0.00 in
07:06 77.4 °F 74.8 °F 29.90 in NW 1.0 mph 4.0 mph 92 % 0.00 in
07:07 77.4 °F 74.8 °F 29.90 in Calm   4.0 mph 92 % 0.00 in
07:12 77.7 °F 75.2 °F 29.91 in NNE 1.0 mph 4.0 mph 92 % 0.00 in
07:17 78.1 °F 75.6 °F 29.91 in Calm   4.0 mph 92 % 0.00 in
07:22 78.3 °F 75.4 °F 29.91 in NNW 1.0 mph 4.0 mph 91 % 0.00 in
07:27 78.6 °F 75.7 °F 29.91 in NNW 1.0 mph 4.0 mph 91 % 0.00 in
07:32 79.0 °F 75.7 °F 29.91 in NW 3.0 mph 4.0 mph 90 % 0.00 in
07:37 79.3 °F 75.7 °F 29.91 in NW 1.0 mph 4.0 mph 89 % 0.00 in
07:42 79.7 °F 76.1 °F 29.91 in Calm   4.0 mph 89 % 0.00 in
07:47 80.1 °F 76.1 °F 29.91 in NW 2.0 mph 5.0 mph 88 % 0.00 in
07:52 80.1 °F 75.9 °F 29.91 in NNW 1.0 mph 5.0 mph 87 % 0.00 in
07:57 80.4 °F 76.1 °F 29.91 in NW 3.0 mph 6.0 mph 87 % 0.00 in
08:02 80.8 °F 76.3 °F 29.91 in NNW 3.0 mph 6.0 mph 86 % 0.00 in
08:07 81.0 °F 76.5 °F 29.91 in NNE 2.0 mph 6.0 mph 86 % 0.00 in
08:12 81.3 °F 76.5 °F 29.91 in ENE 1.0 mph 5.0 mph 85 % 0.00 in
08:17 81.9 °F 76.8 °F 29.91 in NW 1.0 mph 6.0 mph 85 % 0.00 in
08:22 82.2 °F 76.5 °F 29.92 in Calm   6.0 mph 83 % 0.00 in
08:27 82.2 °F 76.5 °F 29.92 in NNW 1.0 mph 7.0 mph 83 % 0.00 in
08:32 82.6 °F 76.8 °F 29.92 in WNW 1.0 mph 7.0 mph 83 % 0.00 in
08:37 82.8 °F 77.0 °F 29.93 in NNE 6.0 mph 9.0 mph 83 % 0.00 in
08:42 82.8 °F 76.6 °F 29.93 in NNW 1.0 mph 9.0 mph 82 % 0.00 in
08:47 82.8 °F 76.6 °F 29.93 in NNE 3.0 mph 9.0 mph 82 % 0.00 in
08:52 82.4 °F 76.3 °F 29.93 in North 7.0 mph 12.0 mph 82 % 0.00 in
08:57 82.4 °F 76.6 °F 29.93 in NW 3.0 mph 12.0 mph 83 % 0.00 in
09:02 82.8 °F 76.6 °F 29.93 in North 1.0 mph 12.0 mph 82 % 0.00 in
09:07 83.5 °F 77.0 °F 29.93 in NNE 2.0 mph 8.0 mph 81 % 0.00 in
09:12 83.8 °F 77.0 °F 29.93 in ENE 1.0 mph 8.0 mph 80 % 0.00 in
09:17 84.4 °F 77.2 °F 29.93 in ENE 4.0 mph 7.0 mph 79 % 0.00 in
09:22 84.7 °F 77.2 °F 29.93 in NW 2.0 mph 7.0 mph 78 % 0.00 in
09:23 84.7 °F 77.2 °F 29.93 in NE 2.0 mph 7.0 mph 78 % 0.00 in
09:28 84.9 °F 76.8 °F 29.93 in NW 3.0 mph 9.0 mph 77 % 0.00 in
09:34 85.3 °F 76.8 °F 29.93 in NE 3.0 mph 10.0 mph 76 % 0.00 in
09:39 85.5 °F 76.6 °F 29.93 in ENE 3.0 mph 10.0 mph 75 % 0.00 in
09:44 85.6 °F 77.2 °F 29.93 in East 1.0 mph 10.0 mph 76 % 0.00 in
09:49 86.4 °F 77.5 °F 29.92 in NNW 3.0 mph 10.0 mph 75 % 0.00 in
09:54 86.5 °F 76.8 °F 29.92 in NW 3.0 mph 10.0 mph 73 % 0.00 in
09:59 86.7 °F 77.0 °F 29.92 in ENE 3.0 mph 8.0 mph 73 % 0.00 in
10:04 87.3 °F 77.5 °F 29.92 in North 4.0 mph 9.0 mph 73 % 0.00 in
10:09 87.3 °F 76.6 °F 29.92 in ENE 2.0 mph 9.0 mph 71 % 0.00 in
10:14 87.4 °F 76.8 °F 29.92 in NNW 2.0 mph 9.0 mph 71 % 0.00 in
10:19 87.8 °F 77.2 °F 29.92 in East 1.0 mph 9.0 mph 71 % 0.00 in
10:24 88.5 °F 77.9 °F 29.92 in North 5.0 mph 9.0 mph 71 % 0.00 in
10:29 89.1 °F 77.2 °F 29.92 in ESE 2.0 mph 9.0 mph 68 % 0.00 in
10:34 89.2 °F 77.7 °F 29.92 in NW 3.0 mph 9.0 mph 69 % 0.00 in
10:39 89.6 °F 77.5 °F 29.92 in NNW 4.0 mph 7.0 mph 68 % 0.00 in
10:44 89.4 °F 77.5 °F 29.92 in ESE 1.0 mph 10.0 mph 68 % 0.00 in
10:49 89.6 °F 76.6 °F 29.92 in NW 5.0 mph 10.0 mph 66 % 0.00 in
10:54 90.0 °F 77.5 °F 29.92 in WNW 2.0 mph 11.0 mph 67 % 0.00 in
10:59 90.1 °F 77.2 °F 29.92 in NNW 2.0 mph 11.0 mph 66 % 0.00 in
11:04 90.3 °F 77.4 °F 29.92 in North 2.0 mph 11.0 mph 66 % 0.00 in
11:09 90.0 °F 76.6 °F 29.92 in WNW 2.0 mph 8.0 mph 65 % 0.00 in
11:14 90.1 °F 76.8 °F 29.92 in ENE 6.0 mph 11.0 mph 65 % 0.00 in
11:19 90.3 °F 77.0 °F 29.92 in NNW 5.0 mph 11.0 mph 65 % 0.00 in
11:24 90.5 °F 76.6 °F 29.92 in NW 3.0 mph 12.0 mph 64 % 0.00 in
11:29 90.9 °F 76.1 °F 29.92 in North 6.0 mph 12.0 mph 62 % 0.00 in
11:34 90.9 °F 76.1 °F 29.92 in North 8.0 mph 12.0 mph 62 % 0.00 in
11:39 90.9 °F 76.5 °F 29.91 in North 5.0 mph 10.0 mph 63 % 0.00 in
11:42 90.7 °F 75.9 °F 29.91 in West 3.0 mph 10.0 mph 62 % 0.00 in
11:47 90.7 °F 75.9 °F 29.91 in ENE 6.0 mph 11.0 mph 62 % 0.00 in
11:52 91.0 °F 76.3 °F 29.91 in ENE 5.0 mph 11.0 mph 62 % 0.00 in
11:57 91.4 °F 75.6 °F 29.91 in NNE 3.0 mph 11.0 mph 60 % 0.00 in
12:02 91.8 °F 76.5 °F 29.91 in NW 4.0 mph 10.0 mph 61 % 0.00 in
12:07 91.6 °F 75.7 °F 29.91 in NNW 8.0 mph 14.0 mph 60 % 0.00 in
12:12 91.0 °F 75.7 °F 29.91 in NW 3.0 mph 14.0 mph 61 % 0.00 in
12:17 91.2 °F 75.9 °F 29.91 in ENE 2.0 mph 14.0 mph 61 % 0.00 in
12:22 92.1 °F 75.7 °F 29.91 in North 4.0 mph 14.0 mph 59 % 0.00 in
12:27 91.9 °F 76.1 °F 29.91 in SW 1.0 mph 14.0 mph 60 % 0.00 in
12:32 92.5 °F 76.6 °F 29.91 in ENE 3.0 mph 13.0 mph 60 % 0.00 in
12:37 92.8 °F 75.9 °F 29.91 in North 4.0 mph 13.0 mph 58 % 0.00 in
12:42 91.9 °F 76.1 °F 29.91 in NW 7.0 mph 13.0 mph 60 % 0.00 in
12:47 92.1 °F 76.6 °F 29.91 in ENE 2.0 mph 10.0 mph 61 % 0.00 in
12:52 92.5 °F 76.6 °F 29.90 in WNW 2.0 mph 10.0 mph 60 % 0.00 in
12:57 92.8 °F 75.9 °F 29.90 in WNW 3.0 mph 10.0 mph 58 % 0.00 in
13:02 91.9 °F 75.0 °F 29.90 in ENE 3.0 mph 13.0 mph 58 % 0.00 in
13:07 91.6 °F 75.2 °F 29.90 in ENE 5.0 mph 13.0 mph 59 % 0.00 in
13:12 91.8 °F 75.9 °F 29.90 in NNW 7.0 mph 13.0 mph 60 % 0.00 in
13:17 92.5 °F 76.1 °F 29.89 in NW 4.0 mph 12.0 mph 59 % 0.00 in
13:22 92.8 °F 75.9 °F 29.89 in ENE 10.0 mph 12.0 mph 58 % 0.00 in
13:27 91.9 °F 75.6 °F 29.89 in NW 4.0 mph 12.0 mph 59 % 0.00 in
13:32 92.1 °F 75.2 °F 29.89 in NNW 6.0 mph 12.0 mph 58 % 0.00 in
13:37 92.8 °F 75.9 °F 29.89 in NW 6.0 mph 12.0 mph 58 % 0.00 in
13:42 93.0 °F 76.1 °F 29.89 in NNW 1.0 mph 12.0 mph 58 % 0.00 in
13:47 93.4 °F 76.5 °F 29.88 in NW 2.0 mph 12.0 mph 58 % 0.00 in
13:52 92.8 °F 75.9 °F 29.88 in North 4.0 mph 11.0 mph 58 % 0.00 in
13:57 92.8 °F 76.5 °F 29.88 in NNW 2.0 mph 11.0 mph 59 % 0.00 in
14:02 93.4 °F 76.5 °F 29.88 in NNW 3.0 mph 13.0 mph 58 % 0.00 in
14:07 93.7 °F 76.3 °F 29.88 in North 9.0 mph 13.0 mph 57 % 0.00 in
14:12 93.2 °F 75.7 °F 29.87 in NNW 2.0 mph 14.0 mph 57 % 0.00 in
14:17 93.7 °F 76.3 °F 29.87 in North 4.0 mph 14.0 mph 57 % 0.00 in
14:22 93.9 °F 75.2 °F 29.87 in NNW 6.0 mph 14.0 mph 55 % 0.00 in
14:27 93.4 °F 75.9 °F 29.87 in NNW 7.0 mph 12.0 mph 57 % 0.00 in
14:32 92.8 °F 75.9 °F 29.87 in NNE 3.0 mph 12.0 mph 58 % 0.00 in
14:37 92.7 °F 76.3 °F 29.87 in NNE 5.0 mph 11.0 mph 59 % 0.00 in
14:42 93.0 °F 75.6 °F 29.86 in WNW 4.0 mph 12.0 mph 57 % 0.00 in
14:47 93.4 °F 75.9 °F 29.86 in NE 10.0 mph 15.0 mph 57 % 0.00 in
14:52 93.7 °F 75.7 °F 29.86 in NNW 4.0 mph 15.0 mph 56 % 0.00 in
14:57 93.9 °F 75.7 °F 29.86 in WNW 2.0 mph 15.0 mph 56 % 0.00 in
15:02 94.3 °F 76.1 °F 29.86 in NW 5.0 mph 14.0 mph 56 % 0.00 in
15:07 94.3 °F 75.6 °F 29.86 in North 2.0 mph 12.0 mph 55 % 0.00 in
15:12 93.9 °F 75.2 °F 29.86 in NNW 5.0 mph 13.0 mph 55 % 0.00 in
15:17 93.9 °F 75.2 °F 29.86 in SE 2.0 mph 13.0 mph 55 % 0.00 in
15:22 93.7 °F 74.7 °F 29.86 in East 3.0 mph 13.0 mph 54 % 0.00 in
15:27 93.7 °F 75.7 °F 29.86 in ENE 3.0 mph 11.0 mph 56 % 0.00 in
15:32 93.7 °F 75.2 °F 29.86 in North 8.0 mph 12.0 mph 55 % 0.00 in
15:37 93.6 °F 74.5 °F 29.86 in WSW 6.0 mph 14.0 mph 54 % 0.00 in
15:42 93.6 °F 75.6 °F 29.85 in NNW 5.0 mph 15.0 mph 56 % 0.00 in
15:47 93.4 °F 76.5 °F 29.85 in NW 4.0 mph 15.0 mph 58 % 0.00 in
15:49 93.4 °F 76.5 °F 29.85 in WNW 6.0 mph 15.0 mph 58 % 0.00 in
15:54 93.4 °F 75.4 °F 29.85 in NW 4.0 mph 15.0 mph 56 % 0.00 in
15:59 93.4 °F 75.4 °F 29.85 in NW 4.0 mph 12.0 mph 56 % 0.00 in
16:04 93.4 °F 74.8 °F 29.85 in North 4.0 mph 12.0 mph 55 % 0.00 in
16:09 93.0 °F 75.6 °F 29.84 in WNW 8.0 mph 12.0 mph 57 % 0.00 in
16:14 93.0 °F 76.1 °F 29.84 in NNW 3.0 mph 12.0 mph 58 % 0.00 in
16:19 93.0 °F 75.6 °F 29.84 in NW 4.0 mph 12.0 mph 57 % 0.00 in
16:24 92.7 °F 75.2 °F 29.84 in WNW 4.0 mph 11.0 mph 57 % 0.00 in
16:29 92.5 °F 75.0 °F 29.84 in NW 8.0 mph 15.0 mph 57 % 0.00 in
16:34 91.9 °F 74.5 °F 29.84 in NNW 3.0 mph 15.0 mph 57 % 0.00 in
16:39 91.6 °F 74.1 °F 29.84 in NNW 5.0 mph 15.0 mph 57 % 0.00 in
16:40 91.6 °F 74.7 °F 29.84 in SW 2.0 mph 13.0 mph 58 % 0.00 in
16:45 91.6 °F 75.2 °F 29.83 in NNE 5.0 mph 10.0 mph 59 % 0.00 in
16:50 91.6 °F 75.2 °F 29.83 in North 4.0 mph 10.0 mph 59 % 0.00 in
16:55 91.6 °F 75.2 °F 29.83 in ENE 10.0 mph 11.0 mph 59 % 0.00 in
17:00 91.6 °F 75.2 °F 29.83 in NNW 5.0 mph 11.0 mph 59 % 0.00 in
17:02 91.6 °F 75.2 °F 29.84 in NNW 6.0 mph 11.0 mph 59 % 0.00 in
17:07 91.8 °F 75.4 °F 29.83 in NE 3.0 mph 11.0 mph 59 % 0.00 in
17:12 91.8 °F 75.4 °F 29.83 in NNE 10.0 mph 11.0 mph 59 % 0.00 in
17:17 91.6 °F 75.7 °F 29.83 in NW 5.0 mph 11.0 mph 60 % 0.00 in
17:22 91.2 °F 75.4 °F 29.83 in WNW 5.0 mph 11.0 mph 60 % 0.00 in
17:27 91.0 °F 75.7 °F 29.83 in West 8.0 mph 11.0 mph 61 % 0.00 in
17:32 90.9 °F 75.6 °F 29.83 in NW 4.0 mph 13.0 mph 61 % 0.00 in
17:33 90.9 °F 76.1 °F 29.83 in NW 4.0 mph 13.0 mph 62 % 0.00 in
17:38 90.7 °F 75.4 °F 29.83 in NE 10.0 mph 13.0 mph 61 % 0.00 in
17:43 90.3 °F 75.6 °F 29.83 in WNW 1.0 mph 13.0 mph 62 % 0.00 in
17:48 90.3 °F 75.6 °F 29.83 in West 8.0 mph 11.0 mph 62 % 0.00 in
17:53 90.1 °F 75.9 °F 29.83 in NNE 6.0 mph 15.0 mph 63 % 0.00 in
17:58 89.8 °F 75.6 °F 29.83 in North 6.0 mph 15.0 mph 63 % 0.00 in
18:03 89.6 °F 75.7 °F 29.83 in NW 3.0 mph 15.0 mph 64 % 0.00 in
18:08 89.4 °F 75.6 °F 29.83 in NW 3.0 mph 12.0 mph 64 % 0.00 in
18:13 89.4 °F 75.6 °F 29.83 in West 6.0 mph 12.0 mph 64 % 0.00 in
18:18 89.2 °F 75.4 °F 29.83 in NW 4.0 mph 12.0 mph 64 % 0.00 in
18:23 89.1 °F 75.7 °F 29.83 in NE 3.0 mph 10.0 mph 65 % 0.00 in
18:28 88.9 °F 75.6 °F 29.83 in NNW 2.0 mph 9.0 mph 65 % 0.00 in
18:33 88.9 °F 75.6 °F 29.83 in WNW 2.0 mph 9.0 mph 65 % 0.00 in
18:38 88.9 °F 75.6 °F 29.83 in West 6.0 mph 7.0 mph 65 % 0.00 in
18:43 88.5 °F 75.2 °F 29.83 in WNW 2.0 mph 8.0 mph 65 % 0.00 in
18:48 88.3 °F 75.6 °F 29.83 in NNE 8.0 mph 11.0 mph 66 % 0.00 in
18:53 88.0 °F 75.6 °F 29.83 in North 6.0 mph 11.0 mph 67 % 0.00 in
18:58 88.0 °F 75.6 °F 29.83 in NNW 4.0 mph 11.0 mph 67 % 0.00 in
19:03 87.8 °F 75.4 °F 29.83 in NW 3.0 mph 10.0 mph 67 % 0.00 in
19:08 87.6 °F 75.7 °F 29.83 in WNW 1.0 mph 10.0 mph 68 % 0.00 in
19:10 87.6 °F 75.7 °F 29.83 in West 1.0 mph 12.0 mph 68 % 0.00 in
19:15 87.6 °F 75.7 °F 29.83 in North 5.0 mph 12.0 mph 68 % 0.00 in
19:20 87.4 °F 75.9 °F 29.83 in North 1.0 mph 12.0 mph 69 % 0.00 in
19:25 87.4 °F 75.9 °F 29.83 in WNW 2.0 mph 10.0 mph 69 % 0.00 in
19:30 87.4 °F 75.9 °F 29.83 in NNW 6.0 mph 10.0 mph 69 % 0.00 in
19:35 87.3 °F 76.3 °F 29.84 in WNW 1.0 mph 10.0 mph 70 % 0.00 in
19:40 87.3 °F 76.3 °F 29.83 in North 1.0 mph 10.0 mph 70 % 0.00 in
19:45 87.1 °F 76.1 °F 29.83 in NNW 4.0 mph 10.0 mph 70 % 0.00 in
19:50 86.7 °F 76.1 °F 29.83 in NE 1.0 mph 6.0 mph 71 % 0.00 in
19:55 86.7 °F 76.1 °F 29.83 in NNW 2.0 mph 6.0 mph 71 % 0.00 in
20:00 86.5 °F 75.9 °F 29.84 in NW 1.0 mph 9.0 mph 71 % 0.00 in
20:05 86.4 °F 76.3 °F 29.84 in NNE 3.0 mph 9.0 mph 72 % 0.00 in
20:10 86.2 °F 76.1 °F 29.83 in NNW 2.0 mph 9.0 mph 72 % 0.00 in
20:15 86.2 °F 76.1 °F 29.84 in NNW 4.0 mph 8.0 mph 72 % 0.00 in
20:17 86.0 °F 75.9 °F 29.84 in East 3.0 mph 8.0 mph 72 % 0.00 in
20:22 85.8 °F 75.7 °F 29.84 in NNW 5.0 mph 8.0 mph 72 % 0.00 in
20:27 85.6 °F 75.9 °F 29.83 in NE 1.0 mph 8.0 mph 73 % 0.00 in
20:32 85.6 °F 75.9 °F 29.83 in NE 2.0 mph 8.0 mph 73 % 0.00 in
20:37 85.5 °F 75.7 °F 29.83 in NE 3.0 mph 8.0 mph 73 % 0.00 in
20:42 85.3 °F 76.1 °F 29.84 in North 1.0 mph 7.0 mph 74 % 0.00 in
20:47 85.3 °F 76.1 °F 29.84 in NNW 1.0 mph 7.0 mph 74 % 0.00 in
20:52 85.1 °F 76.3 °F 29.84 in NNW 1.0 mph 7.0 mph 75 % 0.00 in
20:57 84.9 °F 76.1 °F 29.84 in NW 1.0 mph 5.0 mph 75 % 0.00 in
21:02 84.7 °F 75.9 °F 29.84 in NE 1.0 mph 5.0 mph 75 % 0.00 in
21:07 84.7 °F 76.3 °F 29.84 in NNE 5.0 mph 5.0 mph 76 % 0.00 in
21:12 84.6 °F 76.1 °F 29.84 in NNW 2.0 mph 5.0 mph 76 % 0.00 in
21:13 84.6 °F 76.1 °F 29.84 in NNE 2.0 mph 5.0 mph 76 % 0.00 in
21:18 84.4 °F 75.9 °F 29.84 in Calm   5.0 mph 76 % 0.00 in
21:23 84.2 °F 76.3 °F 29.83 in WNW 3.0 mph 6.0 mph 77 % 0.00 in
21:28 84.0 °F 76.1 °F 29.83 in NE 2.0 mph 6.0 mph 77 % 0.00 in
21:33 83.8 °F 75.9 °F 29.83 in North 1.0 mph 6.0 mph 77 % 0.00 in
21:38 83.8 °F 75.9 °F 29.83 in NW 2.0 mph 6.0 mph 77 % 0.00 in
21:43 83.8 °F 75.9 °F 29.84 in NNW 1.0 mph 7.0 mph 77 % 0.00 in
21:48 83.7 °F 75.7 °F 29.84 in North 1.0 mph 7.0 mph 77 % 0.00 in
21:53 83.7 °F 75.7 °F 29.84 in NE 1.0 mph 7.0 mph 77 % 0.00 in
21:58 83.5 °F 75.9 °F 29.84 in NNE 2.0 mph 6.0 mph 78 % 0.00 in
22:03 83.5 °F 75.9 °F 29.84 in NNW 2.0 mph 5.0 mph 78 % 0.00 in
22:08 83.3 °F 75.7 °F 29.84 in NNE 1.0 mph 5.0 mph 78 % 0.00 in
22:13 83.3 °F 75.7 °F 29.84 in Calm   5.0 mph 78 % 0.00 in
22:18 83.1 °F 75.9 °F 29.84 in Calm   5.0 mph 79 % 0.00 in
22:23 83.1 °F 75.9 °F 29.85 in NE 1.0 mph 5.0 mph 79 % 0.00 in
22:28 82.9 °F 75.7 °F 29.85 in NNW 1.0 mph 5.0 mph 79 % 0.00 in
22:33 82.9 °F 75.7 °F 29.85 in ENE 2.0 mph 5.0 mph 79 % 0.00 in
22:38 82.8 °F 75.6 °F 29.85 in Calm   5.0 mph 79 % 0.00 in
22:43 82.8 °F 75.9 °F 29.85 in NNE 1.0 mph 5.0 mph 80 % 0.00 in
22:48 82.6 °F 75.7 °F 29.85 in North 2.0 mph 5.0 mph 80 % 0.00 in
22:53 82.6 °F 75.7 °F 29.85 in North 1.0 mph 5.0 mph 80 % 0.00 in
22:58 82.4 °F 75.6 °F 29.85 in North 1.0 mph 5.0 mph 80 % 0.00 in
23:00 82.4 °F 75.6 °F 29.85 in Calm   5.0 mph 80 % 0.00 in
23:05 82.2 °F 75.7 °F 29.85 in NW 2.0 mph 5.0 mph 81 % 0.00 in
23:10 82.2 °F 75.7 °F 29.85 in Calm   6.0 mph 81 % 0.00 in
23:15 82.0 °F 75.6 °F 29.85 in Calm   7.0 mph 81 % 0.00 in
23:20 82.0 °F 75.6 °F 29.85 in NNW 3.0 mph 7.0 mph 81 % 0.00 in
23:25 82.0 °F 75.6 °F 29.86 in WNW 2.0 mph 7.0 mph 81 % 0.00 in
23:30 82.0 °F 75.6 °F 29.86 in NNW 1.0 mph 7.0 mph 81 % 0.00 in
23:35 81.9 °F 75.4 °F 29.86 in Calm   7.0 mph 81 % 0.00 in
23:40 81.7 °F 75.6 °F 29.86 in North 1.0 mph 7.0 mph 82 % 0.00 in
23:45 81.7 °F 75.6 °F 29.86 in NNW 2.0 mph 7.0 mph 82 % 0.00 in
23:50 81.5 °F 75.9 °F 29.86 in Calm   7.0 mph 83 % 0.00 in
23:55 81.3 °F 75.7 °F 29.86 in NNW 2.0 mph 7.0 mph 83 % 0.00 in
Spring, Texas: Villages of Bridgestone
Compliments of Weather Underground - 3 mb

Script developed by  Jim McMurry - jmcmurry@mwt.net Adapted for the template by  Wim van der Kuil - Leuven-Template.eu

You find our weather info also at:

UK Metoffice

WeatherCloud

Weather Underground

Mid-South Weather Network

AWEKAS

Citizen Weather Observer Program (CWOP)

HAMweather, WeatherForYou, PWS Weather

Equipment we use:

Weather-station
Davis Vantage Vue

Weather-program
Meteohub

Weather-server
Debian 7.9 x86 (Guest)

Provider
DreamHost

Davis Vantage Vue

Meteohub

Debian 7.9 x86 (Guest)

DreamHost